sat.trackr.live / text

‹ back to catalog

STARLINK-31073

NORAD 58773 · 2024-011J

PAYLOAD ACTIVE UNKNOWN

§ Identity

Operator
Country
US
Launch date
2024-01-14
Launch site
AFWTR
Launch vehicle
Mass (kg)
RCS (m²)

Purposes: comms

External: N2YO · Heavens-Above · Gunter

§ Orbital elements

Epoch: 2026-05-25T01:42:08.313120Z

Period
94.11 min
Inclination
53.1592°
Eccentricity
0.0000865
Mean motion
15.30203792 rev/d
Perigee alt
474.6 km
Apogee alt
475.8 km
Semi-major
6,853.3 km
B*
6.5102e-5
RAAN
18.9585°
Arg perigee
91.3774°
Mean anomaly
268.7326°
Rev number
13,196

§ Raw data

STARLINK-310731 58773U 24011J   26145.07092955  .00001570  00000+0  65102-4 0  99932 58773  53.1592  18.9585 0000865  91.3774 268.7326 15.30203792131969

JSON: /api/v1/satellites/58773 · /tle

For live sub-satellite position, see the globe view (requires WebGL).

§ Visibility from observer

Set your observer location to see the next 7 days of passes ≥ 10°. The values pass through the URL so the page stays shareable.

No JS? Fill the form by hand. The geolocation button needs JavaScript.